Time,TemperatureF,DewpointF,PressureIn,WindDirection,WindDirectionDegrees,WindSpeedMPH,WindSpeedGustMPH,Humidity,HourlyPrecipIn,Conditions,Clouds,dailyrainin,SoftwareType,DateUTC
2013-08-08 00:00:00,80.8,72.9,18.70,East,88,7.6,7.6,77,0.00,,,0.00,VWS V14.00,2013-08-08 05:00:00,
2013-08-08 00:01:00,80.8,72.5,18.70,NE,51,5.4,7.6,76,0.00,,,0.00,VWS V14.00,2013-08-08 05:01:00,
2013-08-08 00:02:00,80.6,72.3,18.70,ENE,68,6.3,6.3,76,0.00,,,0.00,VWS V14.00,2013-08-08 05:02:00,
2013-08-08 00:03:00,80.6,72.3,18.70,NE,53,6.3,6.3,76,0.00,,,0.00,VWS V14.00,2013-08-08 05:03:00,
2013-08-08 00:04:00,80.8,72.9,18.70,East,83,8.3,9.6,77,0.00,,,0.00,VWS V14.00,2013-08-08 05:04:00,
2013-08-08 00:05:00,80.8,72.5,18.70,ENE,72,11.0,11.0,76,0.00,,,0.00,VWS V14.00,2013-08-08 05:05:00,
2013-08-08 00:06:00,80.6,72.3,18.70,NNE,22,5.8,11.0,76,0.00,,,0.00,VWS V14.00,2013-08-08 05:06:00,
2013-08-08 00:07:00,80.6,72.7,18.70,ENE,70,4.9,7.6,77,0.00,,,0.00,VWS V14.00,2013-08-08 05:07:00,
2013-08-08 00:08:00,80.6,72.7,18.70,ENE,63,6.3,6.3,77,0.00,,,0.00,VWS V14.00,2013-08-08 05:08:00,
2013-08-08 00:09:00,80.6,72.7,18.70,NE,56,5.8,6.3,77,0.00,,,0.00,VWS V14.00,2013-08-08 05:09:00,
2013-08-08 00:10:00,80.8,72.9,18.70,NE,46,7.6,7.6,77,0.00,,,0.00,VWS V14.00,2013-08-08 05:10:00,
2013-08-08 00:11:00,80.8,72.9,18.70,NE,42,8.1,11.0,77,0.00,,,0.00,VWS V14.00,2013-08-08 05:11:00,
2013-08-08 00:12:00,80.8,72.9,18.70,NE,41,5.8,8.1,77,0.00,,,0.00,VWS V14.00,2013-08-08 05:12:00,
2013-08-08 00:13:00,80.8,72.9,18.70,ENE,61,5.4,10.5,77,0.00,,,0.00,VWS V14.00,2013-08-08 05:13:00,
2013-08-08 00:14:00,80.8,72.9,18.70,East,84,5.4,5.8,77,0.00,,,0.00,VWS V14.00,2013-08-08 05:14:00,
2013-08-08 00:15:00,80.8,73.3,18.70,ENE,78,5.4,8.7,78,0.00,,,0.00,VWS V14.00,2013-08-08 05:15:00,
2013-08-08 00:16:00,81.0,73.5,18.70,ENE,76,3.6,6.3,78,0.00,,,0.00,VWS V14.00,2013-08-08 05:16:00,
2013-08-08 00:17:00,81.0,73.5,18.70,East,100,6.3,8.1,78,0.00,,,0.00,VWS V14.00,2013-08-08 05:17:00,
2013-08-08 00:18:00,81.0,73.1,18.70,NE,39,5.8,6.3,77,0.00,,,0.00,VWS V14.00,2013-08-08 05:18:00,
2013-08-08 00:19:00,80.8,72.9,18.70,ENE,78,4.0,5.8,77,0.00,,,0.00,VWS V14.00,2013-08-08 05:19:00,
2013-08-08 00:20:00,80.8,72.9,18.70,ENE,72,4.0,5.8,77,0.00,,,0.00,VWS V14.00,2013-08-08 05:20:00,
2013-08-08 00:21:00,81.0,73.1,18.70,NE,56,8.1,8.1,77,0.00,,,0.00,VWS V14.00,2013-08-08 05:21:00,
2013-08-08 00:22:00,81.0,73.1,18.70,East,96,8.3,12.8,77,0.00,,,0.00,VWS V14.00,2013-08-08 05:22:00,
2013-08-08 00:23:00,81.0,72.7,18.70,ESE,102,7.6,11.9,76,0.00,,,0.00,VWS V14.00,2013-08-08 05:23:00,
2013-08-08 00:24:00,81.0,72.7,18.70,NE,37,7.6,7.6,76,0.00,,,0.00,VWS V14.00,2013-08-08 05:24:00,
2013-08-08 00:25:00,81.0,72.7,18.70,ENE,65,7.6,8.1,76,0.00,,,0.00,VWS V14.00,2013-08-08 05:25:00,
2013-08-08 00:26:00,81.0,72.7,18.70,ENE,60,5.4,8.7,76,0.00,,,0.00,VWS V14.00,2013-08-08 05:26:00,
2013-08-08 00:27:00,81.0,72.7,18.70,ENE,69,6.3,6.3,76,0.00,,,0.00,VWS V14.00,2013-08-08 05:27:00,
2013-08-08 00:28:00,81.0,72.7,18.70,East,100,7.6,7.6,76,0.00,,,0.00,VWS V14.00,2013-08-08 05:28:00,
2013-08-08 00:29:00,81.0,72.7,18.70,NE,49,5.8,8.1,76,0.00,,,0.00,VWS V14.00,2013-08-08 05:29:00,
2013-08-08 00:30:00,80.8,72.5,18.70,NE,41,5.4,7.6,76,0.00,,,0.00,VWS V14.00,2013-08-08 05:30:00,
2013-08-08 00:31:00,80.8,72.5,18.70,ESE,108,8.1,8.7,76,0.00,,,0.00,VWS V14.00,2013-08-08 05:31:00,
2013-08-08 00:32:00,80.8,72.5,18.70,East,81,8.1,9.2,76,0.00,,,0.00,VWS V14.00,2013-08-08 05:32:00,
2013-08-08 00:33:00,80.8,72.5,18.70,ESE,102,8.3,8.3,76,0.00,,,0.00,VWS V14.00,2013-08-08 05:33:00,
2013-08-08 00:34:00,80.8,72.5,18.70,ENE,63,5.4,8.3,76,0.00,,,0.00,VWS V14.00,2013-08-08 05:34:00,
2013-08-08 00:35:00,80.8,72.5,18.70,ENE,65,4.9,8.3,76,0.00,,,0.00,VWS V14.00,2013-08-08 05:35:00,
2013-08-08 00:36:00,80.6,72.3,18.70,NE,56,2.7,5.8,76,0.00,,,0.00,VWS V14.00,2013-08-08 05:36:00,
2013-08-08 00:37:00,80.6,72.3,18.70,East,94,3.1,5.8,76,0.00,,,0.00,VWS V14.00,2013-08-08 05:37:00,
2013-08-08 00:38:00,80.6,72.3,18.70,NE,41,2.7,3.6,76,0.00,,,0.00,VWS V14.00,2013-08-08 05:38:00,
2013-08-08 00:39:00,80.6,72.3,18.70,ENE,62,3.6,5.8,76,0.00,,,0.00,VWS V14.00,2013-08-08 05:39:00,
2013-08-08 00:40:00,80.4,72.2,18.70,NE,47,8.3,8.3,76,0.00,,,0.00,VWS V14.00,2013-08-08 05:40:00,
2013-08-08 00:41:00,80.4,72.2,18.70,NE,42,6.3,8.3,76,0.00,,,0.00,VWS V14.00,2013-08-08 05:41:00,
2013-08-08 00:42:00,80.4,72.2,18.70,East,91,3.6,6.3,76,0.00,,,0.00,VWS V14.00,2013-08-08 05:42:00,
2013-08-08 00:43:00,80.4,72.2,18.70,ENE,64,7.6,8.7,76,0.00,,,0.00,VWS V14.00,2013-08-08 05:43:00,
2013-08-08 00:44:00,80.4,72.2,18.70,East,91,5.8,7.6,76,0.00,,,0.00,VWS V14.00,2013-08-08 05:44:00,
2013-08-08 00:45:00,80.4,72.2,18.70,ENE,71,5.8,5.8,76,0.00,,,0.00,VWS V14.00,2013-08-08 05:45:00,
2013-08-08 00:46:00,80.4,72.2,18.70,ESE,111,5.4,5.8,76,0.00,,,0.00,VWS V14.00,2013-08-08 05:46:00,
2013-08-08 00:47:00,80.4,72.2,18.70,ESE,108,9.2,10.1,76,0.00,,,0.00,VWS V14.00,2013-08-08 05:47:00,
2013-08-08 00:48:00,80.4,72.2,18.70,East,97,8.1,9.2,76,0.00,,,0.00,VWS V14.00,2013-08-08 05:48:00,
2013-08-08 00:49:00,80.4,72.2,18.70,ESE,110,8.3,10.5,76,0.00,,,0.00,VWS V14.00,2013-08-08 05:49:00,
2013-08-08 00:50:00,80.4,72.2,18.70,East,80,8.3,11.0,76,0.00,,,0.00,VWS V14.00,2013-08-08 05:50:00,
2013-08-08 00:51:00,80.4,71.8,18.70,ESE,114,2.7,10.1,75,0.00,,,0.00,VWS V14.00,2013-08-08 05:51:00,
2013-08-08 00:52:00,80.4,71.8,18.70,East,84,7.6,8.3,75,0.00,,,0.00,VWS V14.00,2013-08-08 05:52:00,
2013-08-08 00:53:00,80.4,71.8,18.70,ENE,65,6.3,8.1,75,0.00,,,0.00,VWS V14.00,2013-08-08 05:53:00,
2013-08-08 00:54:00,80.4,71.8,18.70,ESE,119,4.0,6.3,75,0.00,,,0.00,VWS V14.00,2013-08-08 05:54:00,
2013-08-08 00:55:00,80.4,71.8,18.70,East,87,3.1,5.4,75,0.00,,,0.00,VWS V14.00,2013-08-08 05:55:00,
2013-08-08 00:56:00,80.2,71.6,18.70,ESE,120,2.7,4.0,75,0.00,,,0.00,VWS V14.00,2013-08-08 05:56:00,
2013-08-08 00:57:00,80.2,71.6,18.70,SSE,162,6.3,6.3,75,0.00,,,0.00,VWS V14.00,2013-08-08 05:57:00,
2013-08-08 00:58:00,80.2,71.6,18.70,SSE,166,7.6,8.1,75,0.00,,,0.00,VWS V14.00,2013-08-08 05:58:00,
2013-08-08 00:59:00,80.2,71.6,18.70,SE,142,3.6,7.6,75,0.00,,,0.00,VWS V14.00,2013-08-08 05:59:00,
2013-08-08 01:00:00,80.2,71.6,18.70,SE,133,6.3,7.6,75,0.00,,,0.00,VWS V14.00,2013-08-08 06:00:00,
2013-08-08 01:01:00,80.2,71.6,18.70,SSE,149,6.3,8.3,75,0.00,,,0.00,VWS V14.00,2013-08-08 06:01:00,
2013-08-08 01:02:00,80.2,71.6,18.70,SSE,167,4.9,6.3,75,0.00,,,0.00,VWS V14.00,2013-08-08 06:02:00,
2013-08-08 01:03:00,80.2,71.6,18.70,East,97,8.1,10.5,75,0.00,,,0.00,VWS V14.00,2013-08-08 06:03:00,
2013-08-08 01:04:00,80.2,71.6,18.70,East,101,2.7,8.1,75,0.00,,,0.00,VWS V14.00,2013-08-08 06:04:00,
2013-08-08 01:05:00,80.2,71.6,18.70,East,79,5.4,5.4,75,0.00,,,0.00,VWS V14.00,2013-08-08 06:05:00,
2013-08-08 01:06:00,80.2,71.6,18.70,ESE,110,3.6,5.4,75,0.00,,,0.00,VWS V14.00,2013-08-08 06:06:00,
2013-08-08 01:07:00,80.2,71.6,18.70,SSE,167,6.3,6.3,75,0.00,,,0.00,VWS V14.00,2013-08-08 06:07:00,
2013-08-08 01:08:00,80.1,71.4,18.70,SSE,153,6.3,6.3,75,0.00,,,0.00,VWS V14.00,2013-08-08 06:08:00,
2013-08-08 01:09:00,80.1,71.4,18.70,SE,135,4.0,6.3,75,0.00,,,0.00,VWS V14.00,2013-08-08 06:09:00,
2013-08-08 01:10:00,80.1,71.4,18.70,SSE,159,4.0,5.8,75,0.00,,,0.00,VWS V14.00,2013-08-08 06:10:00,
2013-08-08 01:11:00,80.1,71.4,18.70,South,183,5.4,7.2,75,0.00,,,0.00,VWS V14.00,2013-08-08 06:11:00,
2013-08-08 01:12:00,80.1,71.4,18.70,SSW,211,4.0,5.8,75,0.00,,,0.00,VWS V14.00,2013-08-08 06:12:00,
2013-08-08 01:13:00,80.1,71.8,18.70,SE,139,3.1,4.0,76,0.00,,,0.00,VWS V14.00,2013-08-08 06:13:00,
2013-08-08 01:14:00,80.1,71.8,18.70,SE,142,5.4,5.4,76,0.00,,,0.00,VWS V14.00,2013-08-08 06:14:00,
2013-08-08 01:15:00,80.1,71.4,18.70,SE,145,5.4,8.3,75,0.00,,,0.00,VWS V14.00,2013-08-08 06:15:00,
2013-08-08 01:16:00,80.1,71.4,18.70,ESE,116,3.6,5.8,75,0.00,,,0.00,VWS V14.00,2013-08-08 06:16:00,
2013-08-08 01:17:00,80.1,71.4,18.70,SE,139,4.9,6.3,75,0.00,,,0.00,VWS V14.00,2013-08-08 06:17:00,
2013-08-08 01:18:00,80.1,71.4,18.70,South,175,8.1,8.3,75,0.00,,,0.00,VWS V14.00,2013-08-08 06:18:00,
2013-08-08 01:19:00,80.1,71.4,18.70,SE,141,5.4,8.1,75,0.00,,,0.00,VWS V14.00,2013-08-08 06:19:00,
2013-08-08 01:20:00,79.9,71.6,18.70,SE,134,4.0,8.1,76,0.00,,,0.00,VWS V14.00,2013-08-08 06:20:00,
2013-08-08 01:21:00,79.9,71.6,18.70,SE,125,4.9,8.1,76,0.00,,,0.00,VWS V14.00,2013-08-08 06:21:00,
2013-08-08 01:22:00,79.9,71.6,18.70,SSE,163,5.4,6.3,76,0.00,,,0.00,VWS V14.00,2013-08-08 06:22:00,
2013-08-08 01:23:00,79.9,71.6,18.70,SE,134,7.6,8.7,76,0.00,,,0.00,VWS V14.00,2013-08-08 06:23:00,
2013-08-08 01:24:00,79.9,71.6,18.70,SE,142,4.0,7.6,76,0.00,,,0.00,VWS V14.00,2013-08-08 06:24:00,
2013-08-08 01:25:00,79.9,71.6,18.70,ENE,66,5.4,5.4,76,0.00,,,0.00,VWS V14.00,2013-08-08 06:25:00,
2013-08-08 01:26:00,79.7,71.5,18.70,South,186,2.7,5.4,76,0.00,,,0.00,VWS V14.00,2013-08-08 06:26:00,
2013-08-08 01:27:00,79.7,71.5,18.70,South,185,2.7,3.1,76,0.00,,,0.00,VWS V14.00,2013-08-08 06:27:00,
2013-08-08 01:28:00,79.5,71.3,18.70,SSW,196,2.7,4.0,76,0.00,,,0.00,VWS V14.00,2013-08-08 06:28:00,
2013-08-08 01:29:00,79.5,71.3,18.70,SSW,195,2.7,3.6,76,0.00,,,0.00,VWS V14.00,2013-08-08 06:29:00,
2013-08-08 01:30:00,79.5,71.7,18.70,SSW,197,3.1,3.1,77,0.00,,,0.00,VWS V14.00,2013-08-08 06:30:00,
2013-08-08 01:31:00,79.3,71.5,18.70,SSW,195,3.1,3.1,77,0.00,,,0.00,VWS V14.00,2013-08-08 06:31:00,
2013-08-08 01:32:00,79.3,71.5,18.70,SSW,200,3.6,5.8,77,0.00,,,0.00,VWS V14.00,2013-08-08 06:32:00,
2013-08-08 01:33:00,79.2,71.3,18.70,SSW,196,3.1,4.0,77,0.00,,,0.00,VWS V14.00,2013-08-08 06:33:00,
2013-08-08 01:34:00,79.0,71.5,18.70,SSE,167,4.0,5.8,78,0.04,,,0.04,VWS V14.00,2013-08-08 06:34:00,
2013-08-08 01:35:00,78.8,71.4,18.70,SE,136,3.6,4.0,78,0.04,,,0.04,VWS V14.00,2013-08-08 06:35:00,
2013-08-08 01:36:00,78.8,71.7,18.70,ESE,104,8.3,8.3,79,0.08,,,0.08,VWS V14.00,2013-08-08 06:36:00,
2013-08-08 01:37:00,78.4,72.5,18.70,ESE,118,11.0,11.0,82,0.20,,,0.20,VWS V14.00,2013-08-08 06:37:00,
2013-08-08 01:38:00,78.3,72.7,18.70,East,92,8.3,11.9,83,0.20,,,0.20,VWS V14.00,2013-08-08 06:38:00,
2013-08-08 01:39:00,78.1,72.9,18.70,East,97,5.8,8.3,84,0.24,,,0.24,VWS V14.00,2013-08-08 06:39:00,
2013-08-08 01:40:00,77.9,73.0,18.70,ENE,64,7.6,8.1,85,0.24,,,0.24,VWS V14.00,2013-08-08 06:40:00,
2013-08-08 01:41:00,77.7,73.2,18.70,ESE,123,4.9,8.3,86,0.24,,,0.24,VWS V14.00,2013-08-08 06:41:00,
2013-08-08 01:42:00,77.5,73.0,18.70,ESE,122,4.9,4.9,86,0.24,,,0.24,VWS V14.00,2013-08-08 06:42:00,
2013-08-08 01:43:00,77.5,73.0,18.70,SSE,153,6.3,6.3,86,0.24,,,0.24,VWS V14.00,2013-08-08 06:43:00,
2013-08-08 01:44:00,77.5,73.0,18.70,SSE,157,3.6,6.3,86,0.24,,,0.24,VWS V14.00,2013-08-08 06:44:00,
2013-08-08 01:45:00,77.4,72.8,18.70,SSE,168,2.7,3.6,86,0.24,,,0.24,VWS V14.00,2013-08-08 06:45:00,
2013-08-08 01:46:00,77.4,72.8,18.70,South,173,4.0,4.9,86,0.24,,,0.24,VWS V14.00,2013-08-08 06:46:00,
2013-08-08 01:47:00,77.4,72.8,18.70,East,101,8.1,11.0,86,0.28,,,0.28,VWS V14.00,2013-08-08 06:47:00,
2013-08-08 01:48:00,77.4,72.8,18.70,SE,139,6.3,8.1,86,0.28,,,0.28,VWS V14.00,2013-08-08 06:48:00,
2013-08-08 01:49:00,77.4,72.8,18.70,East,92,3.1,6.3,86,0.28,,,0.28,VWS V14.00,2013-08-08 06:49:00,
2013-08-08 01:50:00,77.4,72.8,18.70,SE,146,5.4,5.8,86,0.28,,,0.28,VWS V14.00,2013-08-08 06:50:00,
2013-08-08 01:51:00,77.4,73.2,18.70,SSE,165,2.7,5.4,87,0.31,,,0.31,VWS V14.00,2013-08-08 06:51:00,
2013-08-08 01:52:00,77.2,73.0,18.70,SSE,157,2.7,6.3,87,0.31,,,0.31,VWS V14.00,2013-08-08 06:52:00,
2013-08-08 01:53:00,77.2,73.0,18.70,SE,126,3.6,4.0,87,0.31,,,0.31,VWS V14.00,2013-08-08 06:53:00,
2013-08-08 01:54:00,77.0,73.2,18.70,ESE,116,10.1,10.1,88,0.31,,,0.31,VWS V14.00,2013-08-08 06:54:00,
2013-08-08 01:55:00,77.0,73.2,18.70,SE,131,9.6,10.1,88,0.31,,,0.31,VWS V14.00,2013-08-08 06:55:00,
2013-08-08 01:56:00,77.0,73.2,18.70,East,86,5.8,9.6,88,0.31,,,0.31,VWS V14.00,2013-08-08 06:56:00,
2013-08-08 01:57:00,77.0,73.2,18.70,ENE,77,5.4,8.7,88,0.31,,,0.31,VWS V14.00,2013-08-08 06:57:00,
2013-08-08 01:58:00,77.0,73.2,18.70,ESE,119,9.6,9.6,88,0.31,,,0.31,VWS V14.00,2013-08-08 06:58:00,
2013-08-08 01:59:00,77.0,73.2,18.70,ESE,116,7.6,9.6,88,0.35,,,0.35,VWS V14.00,2013-08-08 06:59:00,
2013-08-08 02:00:00,77.0,73.5,18.70,SE,139,5.4,7.6,89,0.35,,,0.35,VWS V14.00,2013-08-08 07:00:00,
2013-08-08 02:01:00,77.0,73.5,18.70,ESE,103,8.1,8.1,89,0.35,,,0.35,VWS V14.00,2013-08-08 07:01:00,
2013-08-08 02:02:00,77.0,73.5,18.70,ENE,68,7.6,8.1,89,0.35,,,0.35,VWS V14.00,2013-08-08 07:02:00,
2013-08-08 02:03:00,77.0,73.5,18.70,East,83,11.9,11.9,89,0.35,,,0.35,VWS V14.00,2013-08-08 07:03:00,
2013-08-08 02:04:00,77.0,73.5,18.70,East,93,10.5,11.9,89,0.35,,,0.35,VWS V14.00,2013-08-08 07:04:00,
2013-08-08 02:05:00,77.0,73.5,18.70,East,95,12.3,12.3,89,0.35,,,0.35,VWS V14.00,2013-08-08 07:05:00,
2013-08-08 02:06:00,76.8,73.7,18.70,NE,37,6.3,12.3,90,0.35,,,0.35,VWS V14.00,2013-08-08 07:06:00,
2013-08-08 02:07:00,76.8,73.3,18.70,SE,142,8.7,8.7,89,0.35,,,0.35,VWS V14.00,2013-08-08 07:07:00,
2013-08-08 02:08:00,76.8,73.3,18.70,SE,129,8.3,8.7,89,0.35,,,0.35,VWS V14.00,2013-08-08 07:08:00,
2013-08-08 02:09:00,76.6,73.2,18.70,SE,124,7.6,8.3,89,0.35,,,0.35,VWS V14.00,2013-08-08 07:09:00,
2013-08-08 02:10:00,76.6,72.8,18.70,ESE,112,8.1,8.7,88,0.35,,,0.35,VWS V14.00,2013-08-08 07:10:00,
2013-08-08 02:11:00,76.5,72.7,18.70,East,96,8.1,8.7,88,0.35,,,0.35,VWS V14.00,2013-08-08 07:11:00,
2013-08-08 02:12:00,76.5,72.3,18.70,SSE,147,4.0,8.7,87,0.35,,,0.35,VWS V14.00,2013-08-08 07:12:00,
2013-08-08 02:13:00,76.3,71.8,18.70,South,172,8.3,8.3,86,0.35,,,0.35,VWS V14.00,2013-08-08 07:13:00,
2013-08-08 02:14:00,76.3,71.8,18.70,SSE,153,3.1,8.3,86,0.35,,,0.35,VWS V14.00,2013-08-08 07:14:00,
2013-08-08 02:15:00,76.3,71.8,18.70,SSE,151,5.4,5.4,86,0.35,,,0.35,VWS V14.00,2013-08-08 07:15:00,
2013-08-08 02:16:00,76.3,71.8,18.70,South,176,4.0,6.3,86,0.35,,,0.35,VWS V14.00,2013-08-08 07:16:00,
2013-08-08 02:17:00,76.3,71.8,18.70,South,179,4.0,5.4,86,0.35,,,0.35,VWS V14.00,2013-08-08 07:17:00,
2013-08-08 02:18:00,76.1,71.6,18.70,South,185,3.6,6.3,86,0.35,,,0.35,VWS V14.00,2013-08-08 07:18:00,
2013-08-08 02:19:00,76.1,71.6,18.70,SE,138,4.9,8.3,86,0.35,,,0.35,VWS V14.00,2013-08-08 07:19:00,
2013-08-08 02:20:00,75.9,71.1,18.70,SSE,151,11.4,11.4,85,0.35,,,0.35,VWS V14.00,2013-08-08 07:20:00,
2013-08-08 02:21:00,75.9,71.1,18.70,South,191,5.8,11.4,85,0.35,,,0.35,VWS V14.00,2013-08-08 07:21:00,
2013-08-08 02:22:00,75.7,70.9,18.70,South,187,8.1,8.7,85,0.35,,,0.35,VWS V14.00,2013-08-08 07:22:00,
2013-08-08 02:23:00,75.6,70.7,18.70,SSE,164,6.3,8.1,85,0.35,,,0.35,VWS V14.00,2013-08-08 07:23:00,
2013-08-08 02:24:00,75.6,70.7,18.70,SSE,164,7.6,7.6,85,0.35,,,0.35,VWS V14.00,2013-08-08 07:24:00,
2013-08-08 02:25:00,75.4,70.6,18.70,South,179,5.8,12.8,85,0.35,,,0.35,VWS V14.00,2013-08-08 07:25:00,
2013-08-08 02:26:00,75.4,70.6,18.70,SE,133,10.1,10.5,85,0.35,,,0.35,VWS V14.00,2013-08-08 07:26:00,
2013-08-08 02:27:00,75.4,70.6,18.70,South,185,10.1,17.4,85,0.35,,,0.35,VWS V14.00,2013-08-08 07:27:00,
2013-08-08 02:28:00,75.4,70.2,18.70,East,83,5.4,16.8,84,0.35,,,0.35,VWS V14.00,2013-08-08 07:28:00,
2013-08-08 02:29:00,75.2,69.7,18.70,SE,131,11.0,12.8,83,0.39,,,0.39,VWS V14.00,2013-08-08 07:29:00,
2013-08-08 02:30:00,74.8,69.3,18.70,East,90,4.5,11.0,83,0.43,,,0.43,VWS V14.00,2013-08-08 07:30:00,
2013-08-08 02:31:00,74.5,69.3,18.70,East,88,11.4,11.4,84,0.51,,,0.51,VWS V14.00,2013-08-08 07:31:00,
2013-08-08 02:32:00,74.3,69.2,18.70,SE,145,8.1,13.2,84,0.55,,,0.55,VWS V14.00,2013-08-08 07:32:00,
2013-08-08 02:33:00,73.9,69.2,18.70,SE,128,12.8,12.8,85,0.55,,,0.55,VWS V14.00,2013-08-08 07:33:00,
2013-08-08 02:34:00,73.8,69.0,18.70,East,83,12.8,15.4,85,0.59,,,0.59,VWS V14.00,2013-08-08 07:34:00,
2013-08-08 02:35:00,73.4,69.3,18.70,ENE,75,8.1,13.2,87,0.55,,,0.59,VWS V14.00,2013-08-08 07:35:00,
2013-08-08 02:36:00,73.2,69.1,18.70,NE,39,4.0,8.1,87,0.55,,,0.59,VWS V14.00,2013-08-08 07:36:00,
2013-08-08 02:37:00,73.2,69.1,18.70,South,173,5.4,9.2,87,0.51,,,0.59,VWS V14.00,2013-08-08 07:37:00,
2013-08-08 02:38:00,73.2,69.1,18.70,South,178,8.1,8.3,87,0.39,,,0.59,VWS V14.00,2013-08-08 07:38:00,
2013-08-08 02:39:00,73.0,69.3,18.70,WSW,258,3.1,8.1,88,0.39,,,0.59,VWS V14.00,2013-08-08 07:39:00,
2013-08-08 02:40:00,73.0,69.3,18.70,West,270,5.8,5.8,88,0.35,,,0.59,VWS V14.00,2013-08-08 07:40:00,
2013-08-08 02:41:00,73.0,69.3,18.70,WNW,288,2.2,5.8,88,0.35,,,0.59,VWS V14.00,2013-08-08 07:41:00,
2013-08-08 02:42:00,73.0,69.6,18.70,NNW,331,4.0,4.0,89,0.35,,,0.59,VWS V14.00,2013-08-08 07:42:00,
2013-08-08 02:43:00,73.0,69.6,18.70,SSW,204,2.7,4.0,89,0.35,,,0.59,VWS V14.00,2013-08-08 07:43:00,
2013-08-08 02:44:00,73.0,69.6,18.70,SSW,206,5.8,5.8,89,0.35,,,0.59,VWS V14.00,2013-08-08 07:44:00,
2013-08-08 02:45:00,73.0,69.6,18.70,SSW,193,2.7,5.8,89,0.35,,,0.59,VWS V14.00,2013-08-08 07:45:00,
2013-08-08 02:46:00,73.0,69.6,18.70,NE,35,4.0,4.0,89,0.35,,,0.59,VWS V14.00,2013-08-08 07:46:00,
2013-08-08 02:47:00,73.0,69.9,18.70,SSW,206,3.1,4.0,90,0.35,,,0.59,VWS V14.00,2013-08-08 07:47:00,
2013-08-08 02:48:00,73.0,69.9,18.70,SE,143,3.1,3.1,90,0.31,,,0.59,VWS V14.00,2013-08-08 07:48:00,
2013-08-08 02:49:00,73.0,69.9,18.70,South,170,2.7,5.8,90,0.31,,,0.59,VWS V14.00,2013-08-08 07:49:00,
2013-08-08 02:50:00,73.0,69.9,18.70,SE,129,4.9,9.2,90,0.31,,,0.59,VWS V14.00,2013-08-08 07:50:00,
2013-08-08 02:51:00,73.2,70.1,18.70,South,179,4.0,4.9,90,0.31,,,0.59,VWS V14.00,2013-08-08 07:51:00,
2013-08-08 02:52:00,73.2,70.1,18.70,SSW,207,4.9,5.4,90,0.28,,,0.59,VWS V14.00,2013-08-08 07:52:00,
2013-08-08 02:53:00,73.2,70.1,18.70,SSW,206,4.0,4.9,90,0.28,,,0.59,VWS V14.00,2013-08-08 07:53:00,
2013-08-08 02:54:00,73.2,70.1,18.70,SSW,209,6.3,6.3,90,0.28,,,0.59,VWS V14.00,2013-08-08 07:54:00,
2013-08-08 02:55:00,73.4,70.0,18.70,SSW,211,0.0,6.3,89,0.28,,,0.59,VWS V14.00,2013-08-08 07:55:00,
2013-08-08 02:56:00,73.4,70.0,18.70,SSW,211,0.0,0.0,89,0.28,,,0.59,VWS V14.00,2013-08-08 07:56:00,
2013-08-08 02:57:00,73.6,70.5,18.70,SSW,211,0.0,0.0,90,0.28,,,0.59,VWS V14.00,2013-08-08 07:57:00,
2013-08-08 02:58:00,73.6,70.5,18.70,SSW,211,0.0,0.0,90,0.28,,,0.59,VWS V14.00,2013-08-08 07:58:00,
2013-08-08 02:59:00,73.6,70.5,18.70,SSW,211,0.0,0.0,90,0.28,,,0.59,VWS V14.00,2013-08-08 07:59:00,
2013-08-08 03:00:00,73.6,70.5,18.70,SSW,211,0.0,0.0,90,0.24,,,0.59,VWS V14.00,2013-08-08 08:00:00,
2013-08-08 03:50:00,73.6,69.8,18.70,WSW,243,5.8,5.8,88,0.28,,,0.63,VWS V14.00,2013-08-08 08:50:00,
2013-08-08 03:56:00,72.3,69.2,18.70,WNW,298,6.3,8.7,90,0.08,,,0.67,VWS V14.00,2013-08-08 08:56:00,
2013-08-08 04:02:00,71.4,69.0,18.70,NNW,345,8.1,13.2,92,0.04,,,0.67,VWS V14.00,2013-08-08 09:02:00,
2013-08-08 04:07:00,71.1,69.2,18.70,West,273,8.1,8.1,94,0.04,,,0.67,VWS V14.00,2013-08-08 09:07:00,
2013-08-08 04:13:00,70.7,69.2,18.70,NNW,343,10.5,11.0,95,0.04,,,0.67,VWS V14.00,2013-08-08 09:13:00,
2013-08-08 04:19:00,70.5,69.6,18.70,NW,322,4.9,6.3,97,0.08,,,0.71,VWS V14.00,2013-08-08 09:19:00,
2013-08-08 04:24:00,70.3,69.8,18.70,NNW,331,6.3,8.1,98,0.08,,,0.71,VWS V14.00,2013-08-08 09:24:00,
2013-08-08 04:29:00,70.3,69.8,18.70,NNW,334,4.5,8.3,98,0.08,,,0.71,VWS V14.00,2013-08-08 09:29:00,
2013-08-08 04:34:00,70.2,69.6,18.70,NW,319,2.7,8.1,98,0.08,,,0.71,VWS V14.00,2013-08-08 09:34:00,
2013-08-08 04:39:00,70.0,69.4,18.70,NNW,338,5.8,6.3,98,0.08,,,0.71,VWS V14.00,2013-08-08 09:39:00,
2013-08-08 04:45:00,69.8,69.2,18.70,NNW,342,3.6,3.6,98,0.08,,,0.71,VWS V14.00,2013-08-08 09:45:00,
2013-08-08 04:50:00,69.8,69.2,18.70,NNE,18,8.3,8.3,98,0.08,,,0.71,VWS V14.00,2013-08-08 09:50:00,
2013-08-08 04:55:00,69.6,69.0,18.70,NNE,24,6.3,7.6,98,0.08,,,0.71,VWS V14.00,2013-08-08 09:55:00,
2013-08-08 05:00:00,69.4,68.8,18.70,NNW,334,0.0,3.6,98,0.04,,,0.71,VWS V14.00,2013-08-08 10:00:00,
2013-08-08 05:05:00,69.4,68.8,18.70,North,0,2.2,2.2,98,0.04,,,0.71,VWS V14.00,2013-08-08 10:05:00,
2013-08-08 05:10:00,69.3,68.7,18.70,NW,316,0.0,3.1,98,0.04,,,0.71,VWS V14.00,2013-08-08 10:10:00,
2013-08-08 05:15:00,69.3,68.7,18.70,North,353,0.0,3.6,98,0.04,,,0.71,VWS V14.00,2013-08-08 10:15:00,
2013-08-08 05:21:00,69.1,68.5,18.70,North,357,0.0,0.0,98,0.00,,,0.71,VWS V14.00,2013-08-08 10:21:00,
2013-08-08 05:27:00,69.1,68.5,18.70,NNW,335,0.0,2.7,98,0.00,,,0.71,VWS V14.00,2013-08-08 10:27:00,
2013-08-08 05:33:00,68.9,68.3,18.70,North,357,0.0,0.0,98,0.00,,,0.71,VWS V14.00,2013-08-08 10:33:00,
2013-08-08 05:38:00,68.9,68.3,18.70,North,353,0.0,0.0,98,0.00,,,0.71,VWS V14.00,2013-08-08 10:38:00,
2013-08-08 05:43:00,68.9,68.3,18.70,NNW,340,0.0,0.0,98,0.00,,,0.71,VWS V14.00,2013-08-08 10:43:00,
2013-08-08 05:48:00,68.9,68.3,18.70,North,0,0.0,0.0,98,0.00,,,0.71,VWS V14.00,2013-08-08 10:48:00,
2013-08-08 05:54:00,68.7,68.1,18.70,NNW,348,0.0,0.0,98,0.00,,,0.71,VWS V14.00,2013-08-08 10:54:00,
2013-08-08 05:59:00,68.7,68.1,18.70,NNW,348,0.0,0.0,98,0.00,,,0.71,VWS V14.00,2013-08-08 10:59:00,
2013-08-08 06:05:00,68.7,68.1,18.70,North,353,0.0,0.0,98,0.00,,,0.71,VWS V14.00,2013-08-08 11:05:00,
2013-08-08 06:10:00,68.7,68.1,18.70,North,353,0.0,0.0,98,0.00,,,0.71,VWS V14.00,2013-08-08 11:10:00,
2013-08-08 06:16:00,68.7,68.1,18.70,North,353,0.0,0.0,98,0.00,,,0.71,VWS V14.00,2013-08-08 11:16:00,
2013-08-08 06:22:00,68.7,68.1,18.70,North,353,0.0,0.0,98,0.00,,,0.71,VWS V14.00,2013-08-08 11:22:00,
2013-08-08 06:27:00,68.7,68.1,18.70,North,353,0.0,0.0,98,0.00,,,0.71,VWS V14.00,2013-08-08 11:27:00,
2013-08-08 06:33:00,68.5,68.0,18.70,North,353,0.0,0.0,98,0.00,,,0.71,VWS V14.00,2013-08-08 11:33:00,
2013-08-08 06:38:00,68.5,68.0,18.70,North,353,0.0,0.0,98,0.00,,,0.71,VWS V14.00,2013-08-08 11:38:00,
2013-08-08 06:44:00,68.5,68.0,18.70,North,353,0.0,0.0,98,0.00,,,0.71,VWS V14.00,2013-08-08 11:44:00,
2013-08-08 06:49:00,68.5,68.0,18.70,North,353,0.0,0.0,98,0.00,,,0.71,VWS V14.00,2013-08-08 11:49:00,
2013-08-08 06:54:00,68.5,68.0,18.70,North,353,0.0,0.0,98,0.00,,,0.71,VWS V14.00,2013-08-08 11:54:00,
2013-08-08 07:00:00,68.7,68.1,18.70,North,353,0.0,0.0,98,0.00,,,0.71,VWS V14.00,2013-08-08 12:00:00,
2013-08-08 07:05:00,68.7,68.1,18.70,North,353,0.0,0.0,98,0.00,,,0.71,VWS V14.00,2013-08-08 12:05:00,
2013-08-08 07:11:00,68.9,68.3,18.70,North,353,0.0,0.0,98,0.00,,,0.71,VWS V14.00,2013-08-08 12:11:00,
2013-08-08 07:16:00,68.9,68.3,18.70,North,353,0.0,0.0,98,0.00,,,0.71,VWS V14.00,2013-08-08 12:16:00,
2013-08-08 07:21:00,68.9,68.3,18.70,North,353,0.0,0.0,98,0.00,,,0.71,VWS V14.00,2013-08-08 12:21:00,
2013-08-08 07:27:00,69.1,68.5,18.70,NW,322,0.0,0.0,98,0.00,,,0.71,VWS V14.00,2013-08-08 12:27:00,
2013-08-08 07:33:00,69.1,68.5,18.70,North,11,3.6,3.6,98,0.00,,,0.71,VWS V14.00,2013-08-08 12:33:00,
2013-08-08 07:39:00,69.3,68.7,18.70,NE,56,5.8,5.8,98,0.00,,,0.71,VWS V14.00,2013-08-08 12:39:00,
2013-08-08 07:44:00,69.3,68.7,18.70,NNE,31,3.1,4.0,98,0.00,,,0.71,VWS V14.00,2013-08-08 12:44:00,
2013-08-08 07:49:00,69.4,68.8,18.70,East,83,5.4,5.4,98,0.00,,,0.71,VWS V14.00,2013-08-08 12:49:00,
2013-08-08 07:54:00,69.3,68.7,18.70,ESE,105,0.0,3.1,98,0.00,,,0.71,VWS V14.00,2013-08-08 12:54:00,
2013-08-08 07:59:00,69.3,68.7,18.70,ENE,69,0.0,0.0,98,0.00,,,0.71,VWS V14.00,2013-08-08 12:59:00,
2013-08-08 08:04:00,69.3,68.7,18.70,SE,141,0.0,0.0,98,0.00,,,0.71,VWS V14.00,2013-08-08 13:04:00,
2013-08-08 08:09:00,69.4,68.8,18.70,East,96,0.0,0.0,98,0.00,,,0.71,VWS V14.00,2013-08-08 13:09:00,
2013-08-08 08:15:00,69.8,69.2,18.70,East,96,5.8,5.8,98,0.00,,,0.71,VWS V14.00,2013-08-08 13:15:00,
2013-08-08 08:21:00,70.0,69.4,18.70,NE,51,5.4,6.3,98,0.00,,,0.71,VWS V14.00,2013-08-08 13:21:00,
2013-08-08 08:26:00,70.3,69.8,18.70,ENE,72,5.4,6.3,98,0.00,,,0.71,VWS V14.00,2013-08-08 13:26:00,
2013-08-08 08:32:00,70.7,70.1,18.70,ENE,74,4.0,7.6,98,0.00,,,0.71,VWS V14.00,2013-08-08 13:32:00,
2013-08-08 08:37:00,70.9,70.3,18.70,ENE,76,4.0,4.0,98,0.00,,,0.71,VWS V14.00,2013-08-08 13:37:00,
2013-08-08 08:43:00,70.9,70.3,18.70,East,100,5.8,5.8,98,0.00,,,0.71,VWS V14.00,2013-08-08 13:43:00,
2013-08-08 08:49:00,71.2,70.7,18.70,NE,53,7.2,7.2,98,0.00,,,0.71,VWS V14.00,2013-08-08 13:49:00,
2013-08-08 08:54:00,71.4,70.5,18.70,East,79,3.6,8.7,97,0.00,,,0.71,VWS V14.00,2013-08-08 13:54:00,
2013-08-08 08:59:00,71.4,69.9,18.70,ENE,70,8.1,8.3,95,0.00,,,0.71,VWS V14.00,2013-08-08 13:59:00,
2013-08-08 09:04:00,72.1,70.0,18.70,East,87,8.7,10.1,93,0.00,,,0.71,VWS V14.00,2013-08-08 14:04:00,
2013-08-08 09:10:00,72.1,69.7,18.70,East,88,8.3,10.5,92,0.00,,,0.71,VWS V14.00,2013-08-08 14:10:00,
2013-08-08 09:15:00,72.1,70.0,18.70,ESE,123,5.4,8.1,93,0.00,,,0.71,VWS V14.00,2013-08-08 14:15:00,
2013-08-08 09:20:00,72.7,70.5,18.70,East,85,5.4,5.4,93,0.00,,,0.71,VWS V14.00,2013-08-08 14:20:00,
2013-08-08 09:25:00,73.2,70.8,18.70,ENE,76,5.8,11.4,92,0.00,,,0.71,VWS V14.00,2013-08-08 14:25:00,
2013-08-08 09:30:00,73.8,70.7,18.70,ESE,114,6.3,8.3,90,0.00,,,0.71,VWS V14.00,2013-08-08 14:30:00,
2013-08-08 09:36:00,73.6,70.1,18.70,NNE,31,3.1,4.0,89,0.00,,,0.71,VWS V14.00,2013-08-08 14:36:00,
2013-08-08 09:41:00,73.8,70.3,18.70,East,95,2.7,5.8,89,0.00,,,0.71,VWS V14.00,2013-08-08 14:41:00,
2013-08-08 09:46:00,73.9,70.5,18.70,East,87,8.7,8.7,89,0.00,,,0.71,VWS V14.00,2013-08-08 14:46:00,
2013-08-08 09:52:00,73.9,70.2,18.70,East,98,8.1,8.1,88,0.00,,,0.71,VWS V14.00,2013-08-08 14:52:00,
2013-08-08 09:57:00,74.3,69.8,18.70,East,81,6.3,6.3,86,0.00,,,0.71,VWS V14.00,2013-08-08 14:57:00,
2013-08-08 10:02:00,74.3,69.5,18.70,SSE,150,3.6,6.3,85,0.00,,,0.71,VWS V14.00,2013-08-08 15:02:00,
2013-08-08 10:07:00,74.5,69.3,18.70,East,88,8.1,8.1,84,0.00,,,0.71,VWS V14.00,2013-08-08 15:07:00,
2013-08-08 10:13:00,75.0,69.9,18.70,SSE,149,7.2,7.2,84,0.00,,,0.71,VWS V14.00,2013-08-08 15:13:00,
2013-08-08 10:18:00,75.7,70.9,18.70,SSE,157,4.0,4.0,85,0.00,,,0.71,VWS V14.00,2013-08-08 15:18:00,
2013-08-08 10:24:00,76.3,70.7,18.70,South,179,3.1,7.6,83,0.00,,,0.71,VWS V14.00,2013-08-08 15:24:00,
2013-08-08 10:30:00,76.6,70.0,18.70,ENE,76,8.7,11.0,80,0.00,,,0.71,VWS V14.00,2013-08-08 15:30:00,
2013-08-08 10:35:00,77.0,70.0,18.70,NE,56,2.7,4.9,79,0.00,,,0.71,VWS V14.00,2013-08-08 15:35:00,
2013-08-08 10:41:00,77.5,69.4,18.70,ENE,77,11.0,12.8,76,0.00,,,0.71,VWS V14.00,2013-08-08 15:41:00,
2013-08-08 10:46:00,77.9,69.7,18.70,East,98,8.7,8.7,76,0.00,,,0.71,VWS V14.00,2013-08-08 15:46:00,
2013-08-08 10:52:00,77.5,69.0,18.70,East,85,3.6,10.1,75,0.00,,,0.71,VWS V14.00,2013-08-08 15:52:00,
2013-08-08 10:58:00,77.5,69.4,18.70,East,101,4.0,8.3,76,0.00,,,0.71,VWS V14.00,2013-08-08 15:58:00,
2013-08-08 11:03:00,78.1,69.9,18.70,ESE,117,5.8,8.1,76,0.00,,,0.71,VWS V14.00,2013-08-08 16:03:00,
2013-08-08 11:09:00,79.5,70.9,18.70,ESE,117,8.7,8.7,75,0.00,,,0.71,VWS V14.00,2013-08-08 16:09:00,
2013-08-08 11:14:00,79.5,70.5,18.70,ESE,123,10.1,10.1,74,0.00,,,0.71,VWS V14.00,2013-08-08 16:14:00,
2013-08-08 11:19:00,79.7,70.3,18.70,SSE,153,3.6,11.0,73,0.00,,,0.71,VWS V14.00,2013-08-08 16:19:00,
2013-08-08 11:24:00,80.2,70.4,18.70,East,101,11.0,11.0,72,0.00,,,0.71,VWS V14.00,2013-08-08 16:24:00,
2013-08-08 11:29:00,80.1,69.8,18.70,East,85,9.2,13.2,71,0.00,,,0.71,VWS V14.00,2013-08-08 16:29:00,
2013-08-08 11:34:00,79.5,70.1,18.70,SSW,213,5.4,8.3,73,0.00,,,0.71,VWS V14.00,2013-08-08 16:34:00,
2013-08-08 11:40:00,79.9,70.9,18.70,SSE,151,9.2,9.2,74,0.00,,,0.71,VWS V14.00,2013-08-08 16:40:00,
2013-08-08 11:46:00,80.1,70.6,18.70,East,100,8.3,10.1,73,0.00,,,0.71,VWS V14.00,2013-08-08 16:46:00,
2013-08-08 11:51:00,80.4,71.0,18.70,SE,140,4.0,5.8,73,0.00,,,0.71,VWS V14.00,2013-08-08 16:51:00,
2013-08-08 11:56:00,80.8,70.5,18.70,East,79,8.3,10.1,71,0.00,,,0.71,VWS V14.00,2013-08-08 16:56:00,
2013-08-08 12:02:00,82.2,71.0,18.70,East,85,6.3,10.1,69,0.00,,,0.71,VWS V14.00,2013-08-08 17:02:00,
2013-08-08 12:07:00,81.9,70.7,18.70,SE,135,10.5,10.5,69,0.00,,,0.71,VWS V14.00,2013-08-08 17:07:00,
2013-08-08 12:12:00,81.7,70.9,18.70,ESE,115,6.3,8.3,70,0.00,,,0.71,VWS V14.00,2013-08-08 17:12:00,
2013-08-08 12:17:00,82.0,71.3,18.70,ESE,115,3.1,4.5,70,0.00,,,0.71,VWS V14.00,2013-08-08 17:17:00,
2013-08-08 12:22:00,82.9,71.7,18.70,SE,126,6.3,7.6,69,0.00,,,0.71,VWS V14.00,2013-08-08 17:22:00,
2013-08-08 12:27:00,82.9,71.7,18.70,South,183,4.9,7.6,69,0.00,,,0.71,VWS V14.00,2013-08-08 17:27:00,
2013-08-08 12:33:00,83.1,71.5,18.70,East,97,4.9,8.3,68,0.00,,,0.71,VWS V14.00,2013-08-08 17:33:00,
2013-08-08 12:38:00,83.1,71.5,18.70,SE,144,4.0,4.9,68,0.00,,,0.71,VWS V14.00,2013-08-08 17:38:00,
2013-08-08 12:43:00,83.5,72.2,18.70,ESE,122,6.3,8.7,69,0.00,,,0.71,VWS V14.00,2013-08-08 17:43:00,
2013-08-08 12:48:00,83.5,71.8,18.70,ENE,68,6.3,8.1,68,0.00,,,0.71,VWS V14.00,2013-08-08 17:48:00,
2013-08-08 12:54:00,83.8,73.0,18.70,South,181,5.4,5.4,70,0.00,,,0.71,VWS V14.00,2013-08-08 17:54:00,
2013-08-08 12:59:00,83.8,72.6,18.70,SE,134,4.9,4.9,69,0.00,,,0.71,VWS V14.00,2013-08-08 17:59:00,
2013-08-08 13:05:00,84.4,72.7,18.70,SE,140,5.8,8.3,68,0.00,,,0.71,VWS V14.00,2013-08-08 18:05:00,
2013-08-08 13:11:00,85.3,74.4,18.70,SE,146,5.8,7.6,70,0.00,,,0.71,VWS V14.00,2013-08-08 18:11:00,
2013-08-08 13:16:00,84.9,72.8,18.70,ESE,105,4.0,8.3,67,0.00,,,0.71,VWS V14.00,2013-08-08 18:16:00,
2013-08-08 13:22:00,84.7,73.0,18.70,SE,129,7.6,7.6,68,0.00,,,0.71,VWS V14.00,2013-08-08 18:22:00,
2013-08-08 13:27:00,85.3,73.5,18.70,SE,141,3.6,4.9,68,0.00,,,0.71,VWS V14.00,2013-08-08 18:27:00,
2013-08-08 13:33:00,86.7,74.9,18.70,SSE,163,3.1,4.0,68,0.00,,,0.71,VWS V14.00,2013-08-08 18:33:00,
2013-08-08 13:38:00,87.3,74.5,18.70,South,180,4.0,7.6,66,0.00,,,0.71,VWS V14.00,2013-08-08 18:38:00,
2013-08-08 13:43:00,87.3,74.1,18.70,South,176,3.6,6.3,65,0.00,,,0.71,VWS V14.00,2013-08-08 18:43:00,
2013-08-08 13:48:00,87.4,74.2,18.70,West,259,3.1,8.7,65,0.00,,,0.71,VWS V14.00,2013-08-08 18:48:00,
2013-08-08 13:53:00,87.3,73.1,18.70,East,96,0.0,5.4,63,0.00,,,0.71,VWS V14.00,2013-08-08 18:53:00,
2013-08-08 13:58:00,87.3,73.6,18.70,East,82,4.0,4.0,64,0.00,,,0.71,VWS V14.00,2013-08-08 18:58:00,
2013-08-08 14:03:00,87.3,73.1,18.70,East,94,5.4,5.4,63,0.00,,,0.71,VWS V14.00,2013-08-08 19:03:00,
2013-08-08 14:08:00,88.2,74.0,18.70,SE,143,2.7,5.8,63,0.00,,,0.71,VWS V14.00,2013-08-08 19:08:00,
2013-08-08 14:13:00,87.8,73.6,18.70,SSW,199,2.7,4.0,63,0.00,,,0.71,VWS V14.00,2013-08-08 19:13:00,
2013-08-08 14:19:00,88.3,74.6,18.70,SSW,205,0.0,2.7,64,0.00,,,0.71,VWS V14.00,2013-08-08 19:19:00,
2013-08-08 14:24:00,88.2,73.5,18.70,East,92,4.0,5.8,62,0.00,,,0.71,VWS V14.00,2013-08-08 19:24:00,
2013-08-08 14:30:00,88.3,73.7,18.70,SE,137,3.1,7.6,62,0.00,,,0.71,VWS V14.00,2013-08-08 19:30:00,
2013-08-08 14:36:00,88.2,74.4,18.70,SSW,207,2.7,5.8,64,0.00,,,0.71,VWS V14.00,2013-08-08 19:36:00,
2013-08-08 14:41:00,88.9,74.7,18.70,South,181,8.1,8.3,63,0.00,,,0.71,VWS V14.00,2013-08-08 19:41:00,
2013-08-08 14:47:00,89.1,74.8,18.70,South,180,5.4,5.4,63,0.00,,,0.71,VWS V14.00,2013-08-08 19:47:00,
2013-08-08 14:52:00,88.7,74.5,18.70,SE,144,0.0,5.4,63,0.00,,,0.71,VWS V14.00,2013-08-08 19:52:00,
2013-08-08 14:59:00,88.7,74.5,18.70,SSE,157,6.3,6.3,63,0.00,,,0.71,VWS V14.00,2013-08-08 19:59:00,
2013-08-08 15:05:00,89.8,75.5,18.70,SSW,208,6.3,6.3,63,0.00,,,0.71,VWS V14.00,2013-08-08 20:05:00,
2013-08-08 15:11:00,90.1,75.8,18.70,South,170,2.7,5.8,63,0.00,,,0.71,VWS V14.00,2013-08-08 20:11:00,
2013-08-08 15:17:00,90.7,75.4,18.70,ESE,103,5.4,5.4,61,0.00,,,0.71,VWS V14.00,2013-08-08 20:17:00,
2013-08-08 15:22:00,90.1,73.9,18.70,East,90,2.7,5.4,59,0.00,,,0.71,VWS V14.00,2013-08-08 20:22:00,
2013-08-08 15:28:00,90.1,74.9,18.70,ESE,109,3.1,4.0,61,0.00,,,0.71,VWS V14.00,2013-08-08 20:28:00,
2013-08-08 15:33:00,91.0,75.7,18.70,SSW,208,3.6,4.0,61,0.00,,,0.71,VWS V14.00,2013-08-08 20:33:00,
2013-08-08 15:39:00,91.4,76.1,18.70,SSE,157,4.0,4.0,61,0.00,,,0.71,VWS V14.00,2013-08-08 20:39:00,
2013-08-08 15:42:00,91.0,74.7,18.70,East,88,3.6,6.3,59,0.00,,,0.71,VWS V14.00,2013-08-08 20:42:00,
2013-08-08 15:47:00,90.1,73.4,18.70,ESE,118,5.8,6.7,58,0.00,,,0.71,VWS V14.00,2013-08-08 20:47:00,
2013-08-08 15:52:00,90.0,73.2,18.70,ESE,106,3.1,3.6,58,0.00,,,0.71,VWS V14.00,2013-08-08 20:52:00,
2013-08-08 15:57:00,89.6,72.9,18.70,East,99,3.1,5.4,58,0.00,,,0.71,VWS V14.00,2013-08-08 20:57:00,
2013-08-08 16:02:00,89.4,73.7,18.70,East,83,3.1,3.1,60,0.00,,,0.71,VWS V14.00,2013-08-08 21:02:00,
2013-08-08 16:07:00,89.2,73.1,18.70,East,93,0.0,0.0,59,0.00,,,0.71,VWS V14.00,2013-08-08 21:07:00,
2013-08-08 16:14:00,90.0,75.2,18.70,East,93,0.0,0.0,62,0.00,,,0.71,VWS V14.00,2013-08-08 21:14:00,
2013-08-08 16:19:00,89.4,73.7,18.70,East,80,0.0,3.1,60,0.00,,,0.71,VWS V14.00,2013-08-08 21:19:00,
2013-08-08 16:24:00,89.2,73.6,18.70,East,80,0.0,0.0,60,0.00,,,0.71,VWS V14.00,2013-08-08 21:24:00,
2013-08-08 16:30:00,88.7,73.5,18.70,East,80,0.0,0.0,61,0.00,,,0.71,VWS V14.00,2013-08-08 21:30:00,
2013-08-08 16:35:00,88.5,73.8,18.70,East,80,0.0,0.0,62,0.00,,,0.71,VWS V14.00,2013-08-08 21:35:00,
2013-08-08 16:40:00,88.3,73.7,18.70,East,80,0.0,0.0,62,0.00,,,0.71,VWS V14.00,2013-08-08 21:40:00,
2013-08-08 16:46:00,88.3,74.2,18.70,ESE,113,0.0,2.7,63,0.00,,,0.71,VWS V14.00,2013-08-08 21:46:00,
2013-08-08 16:51:00,88.7,74.0,18.70,ESE,113,0.0,0.0,62,0.00,,,0.71,VWS V14.00,2013-08-08 21:51:00,
2013-08-08 16:56:00,89.2,74.0,18.70,SE,137,2.7,2.7,61,0.00,,,0.71,VWS V14.00,2013-08-08 21:56:00,
2013-08-08 17:01:00,90.0,74.7,18.70,North,0,3.6,4.0,61,0.00,,,0.71,VWS V14.00,2013-08-08 22:01:00,
2013-08-08 17:07:00,90.1,73.9,18.70,North,9,0.0,0.0,59,0.00,,,0.71,VWS V14.00,2013-08-08 22:07:00,
2013-08-08 17:13:00,90.0,75.2,18.70,South,188,0.0,2.7,62,0.00,,,0.71,VWS V14.00,2013-08-08 22:13:00,
2013-08-08 17:18:00,90.3,75.5,18.70,SSW,205,0.0,2.7,62,0.00,,,0.71,VWS V14.00,2013-08-08 22:18:00,
2013-08-08 17:24:00,91.2,75.4,18.70,South,187,0.0,0.0,60,0.00,,,0.71,VWS V14.00,2013-08-08 22:24:00,
2013-08-08 17:29:00,91.0,75.7,18.70,SE,137,0.0,0.0,61,0.00,,,0.71,VWS V14.00,2013-08-08 22:29:00,
2013-08-08 17:35:00,91.4,74.6,18.70,NNE,29,2.7,4.9,58,0.00,,,0.71,VWS V14.00,2013-08-08 22:35:00,
2013-08-08 17:40:00,90.1,74.4,18.70,North,10,4.9,5.4,60,0.00,,,0.71,VWS V14.00,2013-08-08 22:40:00,
2013-08-08 17:45:00,89.6,73.9,18.70,ENE,73,4.0,5.8,60,0.00,,,0.71,VWS V14.00,2013-08-08 22:45:00,
2013-08-08 17:51:00,89.2,73.6,18.70,East,88,3.1,3.1,60,0.00,,,0.71,VWS V14.00,2013-08-08 22:51:00,
2013-08-08 17:57:00,90.3,74.1,18.70,NNE,24,3.6,5.4,59,0.00,,,0.71,VWS V14.00,2013-08-08 22:57:00,
2013-08-08 18:02:00,90.0,73.7,18.70,NNE,29,5.8,6.3,59,0.00,,,0.71,VWS V14.00,2013-08-08 23:02:00,
2013-08-08 18:07:00,89.4,73.2,18.70,NNE,29,3.6,6.3,59,0.00,,,0.71,VWS V14.00,2013-08-08 23:07:00,
2013-08-08 18:13:00,89.4,74.2,18.70,North,7,6.3,8.3,61,0.00,,,0.71,VWS V14.00,2013-08-08 23:13:00,
2013-08-08 18:18:00,89.8,74.6,18.70,NNW,342,5.4,5.4,61,0.00,,,0.71,VWS V14.00,2013-08-08 23:18:00,
2013-08-08 18:23:00,89.4,74.2,18.70,North,4,7.2,7.6,61,0.00,,,0.71,VWS V14.00,2013-08-08 23:23:00,
2013-08-08 18:28:00,89.4,74.2,18.70,North,0,5.4,6.3,61,0.00,,,0.71,VWS V14.00,2013-08-08 23:28:00,
2013-08-08 18:34:00,89.1,73.9,18.70,NNE,12,5.4,5.4,61,0.00,,,0.71,VWS V14.00,2013-08-08 23:34:00,
2013-08-08 18:39:00,89.1,73.9,18.70,NNE,19,6.3,6.3,61,0.00,,,0.71,VWS V14.00,2013-08-08 23:39:00,
2013-08-08 18:45:00,88.9,73.7,18.70,NNE,27,2.7,8.1,61,0.00,,,0.71,VWS V14.00,2013-08-08 23:45:00,
2013-08-08 18:51:00,88.9,73.7,18.70,NNE,14,5.4,7.6,61,0.00,,,0.71,VWS V14.00,2013-08-08 23:51:00,
2013-08-08 18:56:00,88.3,73.2,18.70,NE,34,4.0,6.3,61,0.00,,,0.71,VWS V14.00,2013-08-08 23:56:00,
2013-08-08 19:02:00,88.0,72.9,18.70,North,9,4.9,6.3,61,0.00,,,0.71,VWS V14.00,2013-08-09 00:02:00,
2013-08-08 19:07:00,87.8,73.2,18.70,NE,43,5.8,6.3,62,0.00,,,0.71,VWS V14.00,2013-08-09 00:07:00,
2013-08-08 19:13:00,87.6,73.9,18.70,NE,35,5.8,7.6,64,0.00,,,0.71,VWS V14.00,2013-08-09 00:13:00,
2013-08-08 19:19:00,87.6,73.9,18.70,North,11,5.4,5.4,64,0.00,,,0.71,VWS V14.00,2013-08-09 00:19:00,
2013-08-08 19:24:00,87.3,73.6,18.70,NNE,30,7.6,7.6,64,0.00,,,0.71,VWS V14.00,2013-08-09 00:24:00,
2013-08-08 19:30:00,87.1,73.9,18.70,NNE,33,6.7,7.6,65,0.00,,,0.71,VWS V14.00,2013-08-09 00:30:00,
2013-08-08 19:36:00,86.5,73.8,18.70,NE,50,2.7,6.3,66,0.00,,,0.71,VWS V14.00,2013-08-09 00:36:00,
2013-08-08 19:41:00,86.2,73.5,18.70,NE,56,3.1,6.3,66,0.00,,,0.71,VWS V14.00,2013-08-09 00:41:00,
2013-08-08 19:47:00,85.6,73.0,18.70,NE,41,5.8,7.6,66,0.00,,,0.71,VWS V14.00,2013-08-09 00:47:00,
2013-08-08 19:53:00,85.1,72.5,18.70,NNE,29,3.6,8.3,66,0.00,,,0.71,VWS V14.00,2013-08-09 00:53:00,
2013-08-08 19:59:00,84.6,72.4,18.70,NE,44,2.7,4.0,67,0.00,,,0.71,VWS V14.00,2013-08-09 00:59:00,
2013-08-08 20:04:00,84.2,72.5,18.70,NE,49,3.1,3.6,68,0.00,,,0.71,VWS V14.00,2013-08-09 01:04:00,
2013-08-08 20:09:00,83.8,72.6,18.70,NE,37,0.0,0.0,69,0.00,,,0.71,VWS V14.00,2013-08-09 01:09:00,
2013-08-08 20:14:00,83.7,72.8,18.70,ENE,65,2.2,3.1,70,0.00,,,0.71,VWS V14.00,2013-08-09 01:14:00,
2013-08-08 20:20:00,83.3,72.9,18.70,ENE,58,0.0,0.0,71,0.00,,,0.71,VWS V14.00,2013-08-09 01:20:00,
2013-08-08 20:26:00,82.9,72.2,18.70,ENE,58,0.0,2.2,70,0.00,,,0.71,VWS V14.00,2013-08-09 01:26:00,
2013-08-08 20:32:00,82.8,72.0,18.70,NE,54,0.0,3.1,70,0.00,,,0.71,VWS V14.00,2013-08-09 01:32:00,
2013-08-08 20:37:00,82.4,72.1,18.70,NE,54,2.2,3.1,71,0.00,,,0.71,VWS V14.00,2013-08-09 01:37:00,
2013-08-08 20:42:00,82.0,72.1,18.70,NE,54,0.0,2.7,72,0.00,,,0.71,VWS V14.00,2013-08-09 01:42:00,
2013-08-08 20:48:00,81.9,72.4,18.70,NE,54,0.0,0.0,73,0.00,,,0.71,VWS V14.00,2013-08-09 01:48:00,
2013-08-08 20:54:00,81.7,72.6,18.70,NE,54,0.0,2.7,74,0.00,,,0.71,VWS V14.00,2013-08-09 01:54:00,
2013-08-08 21:00:00,81.3,72.6,18.70,NE,54,0.0,0.0,75,0.00,,,0.71,VWS V14.00,2013-08-09 02:00:00,
2013-08-08 21:06:00,81.1,72.5,18.70,ENE,65,0.0,2.2,75,0.00,,,0.71,VWS V14.00,2013-08-09 02:06:00,
2013-08-08 21:12:00,81.0,72.3,18.70,ENE,71,3.6,3.6,75,0.00,,,0.71,VWS V14.00,2013-08-09 02:12:00,
2013-08-08 21:17:00,80.8,72.1,18.70,East,82,0.0,3.1,75,0.00,,,0.71,VWS V14.00,2013-08-09 02:17:00,
2013-08-08 21:23:00,80.8,72.5,18.70,ENE,61,3.1,4.0,76,0.00,,,0.71,VWS V14.00,2013-08-09 02:23:00,
2013-08-08 21:28:00,80.6,72.3,18.70,ENE,67,3.1,4.0,76,0.00,,,0.71,VWS V14.00,2013-08-09 02:28:00,
2013-08-08 21:34:00,80.4,72.9,18.70,ENE,74,0.0,2.7,78,0.00,,,0.71,VWS V14.00,2013-08-09 02:34:00,
2013-08-08 21:39:00,80.4,72.9,18.70,East,79,2.2,3.6,78,0.00,,,0.71,VWS V14.00,2013-08-09 02:39:00,
2013-08-08 21:45:00,80.2,73.1,18.70,ENE,75,4.9,6.3,79,0.00,,,0.71,VWS V14.00,2013-08-09 02:45:00,
2013-08-08 21:51:00,80.1,73.0,18.70,East,88,3.6,5.4,79,0.00,,,0.71,VWS V14.00,2013-08-09 02:51:00,
2013-08-08 21:57:00,79.9,73.2,18.70,ESE,112,3.1,5.4,80,0.00,,,0.71,VWS V14.00,2013-08-09 02:57:00,
2013-08-08 22:02:00,80.1,73.3,18.70,ENE,73,3.6,5.4,80,0.00,,,0.71,VWS V14.00,2013-08-09 03:02:00,
2013-08-08 22:07:00,80.1,73.3,18.70,ENE,74,2.2,4.0,80,0.00,,,0.71,VWS V14.00,2013-08-09 03:07:00,
2013-08-08 22:13:00,80.1,73.7,18.70,ENE,66,4.0,4.9,81,0.00,,,0.71,VWS V14.00,2013-08-09 03:13:00,
2013-08-08 22:19:00,79.9,73.9,18.70,ENE,64,2.7,2.7,82,0.00,,,0.71,VWS V14.00,2013-08-09 03:19:00,
2013-08-08 22:25:00,79.9,74.3,18.70,NE,50,3.1,4.9,83,0.00,,,0.71,VWS V14.00,2013-08-09 03:25:00,
2013-08-08 22:31:00,79.7,74.4,18.70,ENE,76,8.7,9.6,84,0.00,,,0.71,VWS V14.00,2013-08-09 03:31:00,
2013-08-08 22:36:00,79.7,74.8,18.70,NNE,23,7.6,8.1,85,0.00,,,0.71,VWS V14.00,2013-08-09 03:36:00,
2013-08-08 22:42:00,79.5,74.6,18.70,ENE,67,8.3,8.3,85,0.00,,,0.71,VWS V14.00,2013-08-09 03:42:00,
2013-08-08 22:47:00,79.5,74.6,18.70,NE,45,8.3,9.6,85,0.00,,,0.71,VWS V14.00,2013-08-09 03:47:00,
2013-08-08 22:52:00,79.5,73.6,18.70,NE,47,3.1,6.3,82,0.00,,,0.71,VWS V14.00,2013-08-09 03:52:00,
2013-08-08 22:57:00,79.3,73.4,18.70,NE,56,7.6,7.6,82,0.00,,,0.71,VWS V14.00,2013-08-09 03:57:00,
2013-08-08 23:01:00,79.2,73.2,18.70,NE,50,6.3,10.5,82,0.00,,,0.71,VWS V14.00,2013-08-09 04:01:00,
2013-08-08 23:02:00,79.2,73.2,18.70,ENE,64,6.3,8.1,82,0.00,,,0.71,VWS V14.00,2013-08-09 04:02:00,
2013-08-08 23:03:00,79.2,72.8,18.70,ENE,72,10.1,10.5,81,0.00,,,0.71,VWS V14.00,2013-08-09 04:03:00,
2013-08-08 23:05:00,79.2,72.8,18.70,East,81,3.1,6.3,81,0.00,,,0.71,VWS V14.00,2013-08-09 04:05:00,
2013-08-08 23:08:00,79.0,73.0,18.70,ENE,76,6.3,7.6,82,0.00,,,0.71,VWS V14.00,2013-08-09 04:08:00,
2013-08-08 23:14:00,79.0,73.7,18.70,NE,35,6.3,11.0,84,0.00,,,0.71,VWS V14.00,2013-08-09 04:14:00,
2013-08-08 23:19:00,78.8,73.9,18.70,NE,44,8.3,11.0,85,0.00,,,0.71,VWS V14.00,2013-08-09 04:19:00,
2013-08-08 23:25:00,78.6,74.1,18.70,NE,53,8.3,13.2,86,0.00,,,0.71,VWS V14.00,2013-08-09 04:25:00,
2013-08-08 23:30:00,78.6,74.4,18.70,NE,43,8.3,9.2,87,0.00,,,0.71,VWS V14.00,2013-08-09 04:30:00,
2013-08-08 23:35:00,78.6,74.4,18.70,ENE,74,5.8,10.5,87,0.00,,,0.71,VWS V14.00,2013-08-09 04:35:00,
2013-08-08 23:40:00,78.4,74.6,18.70,NNE,15,10.5,10.5,88,0.00,,,0.71,VWS V14.00,2013-08-09 04:40:00,
2013-08-08 23:46:00,78.4,74.6,18.70,NE,42,5.4,8.7,88,0.00,,,0.71,VWS V14.00,2013-08-09 04:46:00,
2013-08-08 23:51:00,78.3,74.1,18.70,NE,45,4.0,4.0,87,0.00,,,0.71,VWS V14.00,2013-08-09 04:51:00,
2013-08-08 23:56:00,78.1,73.9,18.70,NNE,13,6.3,6.3,87,0.00,,,0.71,VWS V14.00,2013-08-09 04:56:00,